Location: Cahas Mountain Overlook
(37.0833°N, 80.1000°W)
Time: 10:31:29
(UTC-04:00)

A-11 Canister half - Pass Details

Date: 17 February 2026
Orbit: 1524 x 1683 km, 47.3° (Epoch: 16 March)

Event Time Altitude Azimuth Distance (km) Brightness Sun altitude
Rises 22:31:28 0° 302° (WNW) 4,675 12.1 -52.5°
Reaches altitude 10° 22:34:29 10° 303° (WNW) 3,693 11.4 -53.0°
Enters shadow 22:37:53 26° 304° (NW) 2,645 10.4 -53.5°
